Lubbock, TX

2:29 AM CST on November 15, 2019 (GMT -0600)
Lubbock International

Weather History for KLBB - September, 2019

Change the Weather History Date:

Saturday, September 7, 2019

  Actual Average Record
Temperature  
Mean Temperature 81 °F 75 °F  
Max Temperature 95 °F 87 °F 99 °F (2012)
Min Temperature 67 °F 62 °F 45 °F (1918)
Degree Days  
Heating Degree Days 0 0  
Month to date heating degree days 0 0  
Since 1 July heating degree days 0 0  
Cooling Degree Days 16 10  
Month to date cooling degree days 105 74  
Year to date cooling degree days 1823 1600  
Growing Degree Days 31 (Base 50)    
Moisture  
Dew Point 56 °F    
Average Humidity 42    
Maximum Humidity 63    
Minimum Humidity 25    
Precipitation  
Precipitation 0.00 in 0.09 in 1.58 in (1937)
Month to date precipitation 0.00 0.59  
Year to date precipitation 15.59 13.66  
Snow  
Snow 0.00 in 0.00 in 0.00 in (2002)
Month to date snowfall 0.0 0.0  
Since 1 July snowfall 0.0 0.0  
Since 1 September snowfall 0.0 0.0  
Snow Depth 0.00 in    
Sea Level Pressure  
Sea Level Pressure 29.91 in    
Wind  
Wind Speed 8 mph ()    
Max Wind Speed 20 mph    
Max Gust Speed 25 mph    
Visibility 10.0 miles    
Events      
T = Trace of Precipitation, MM = Missing Value Source: Averaged Metar Reports

Daily Weather History Graph

Daily Weather History Graph

Search for Another Location

Airport or City:

Astronomy

Sep. 07, 2019 Rise Set
Actual Time 7:25 AM CDT 8:04 PM CDT
Civil Twilight 6:59 AM CDT 8:30 PM CDT
Nautical Twilight 6:30 AM CDT 8:59 PM CDT
Astronomical Twilight 5:59 AM CDT 9:29 PM CDT
Moon 4:09 PM CDT (9/7) 1:31 AM CDT (9/7)
Length of Visible Light 13h 30m
Length of Day
12h 39m
Waxing Gibbous, 66% of the Moon is Illuminated
Sep 7
Waxing Gibbous
Sep 13
Full
Sep 21
Last Quarter
Sep 28
New
Oct 5
First Quarter

Hourly Weather History & Observations

Time (CDT) Temp. Heat Index Dew Point Humidity Pressure Visibility Wind Dir Wind Speed Gust Speed Precip Events Conditions
12:53 AM 75.9 °F - 55.9 °F 50% 29.98 in 10.0 mi SSE 5.8 mph - N/A   Scattered Clouds
1:53 AM 78.1 °F - 55.0 °F 45% 29.97 in 10.0 mi South 8.1 mph - N/A   Partly Cloudy
2:53 AM 77.0 °F - 55.0 °F 47% 29.97 in 10.0 mi South 8.1 mph - N/A   Clear
3:53 AM 75.9 °F - 55.0 °F 48% 29.96 in 10.0 mi South 8.1 mph - N/A   Clear
4:53 AM 73.9 °F - 55.0 °F 52% 29.95 in 10.0 mi SSW 6.9 mph - N/A   Clear
5:53 AM 71.1 °F - 55.0 °F 57% 29.96 in 10.0 mi West 4.6 mph - N/A   Clear
6:53 AM 69.1 °F - 54.0 °F 58% 29.97 in 10.0 mi Calm Calm - N/A   Partly Cloudy
7:53 AM 68.0 °F - 55.0 °F 63% 29.98 in 10.0 mi WSW 3.5 mph - N/A   Partly Cloudy
8:53 AM 75.0 °F - 55.9 °F 51% 29.99 in 10.0 mi West 6.9 mph - N/A   Partly Cloudy
9:53 AM 82.0 °F 83.0 °F 62.1 °F 51% 29.97 in 10.0 mi SW 12.7 mph - N/A   Partly Cloudy
10:53 AM 84.9 °F 85.9 °F 63.0 °F 48% 29.96 in 10.0 mi SW 13.8 mph - N/A   Clear
11:53 AM 88.0 °F 87.9 °F 61.0 °F 40% 29.96 in 10.0 mi SSW 9.2 mph - N/A   Partly Cloudy
12:53 PM 91.0 °F 90.2 °F 59.0 °F 34% 29.93 in 10.0 mi SSW 10.4 mph - N/A   Scattered Clouds
1:53 PM 88.0 °F 86.9 °F 57.9 °F 36% 29.91 in 10.0 mi SW 10.4 mph 17.3 mph N/A   Mostly Cloudy
2:53 PM 93.0 °F 91.1 °F 55.0 °F 28% 29.88 in 10.0 mi SSW 13.8 mph 23.0 mph N/A   Scattered Clouds
3:53 PM 93.9 °F 92.2 °F 55.9 °F 28% 29.85 in 10.0 mi SSW 18.4 mph 23.0 mph N/A   Scattered Clouds
4:53 PM 93.9 °F 91.4 °F 53.1 °F 25% 29.83 in 10.0 mi SSW 13.8 mph - N/A   Partly Cloudy
5:53 PM 93.0 °F 90.8 °F 54.0 °F 27% 29.82 in 10.0 mi South 12.7 mph - N/A   Partly Cloudy
6:53 PM 91.0 °F - 51.1 °F 25% 29.81 in 10.0 mi South 15.0 mph - N/A   Partly Cloudy
7:53 PM 88.0 °F - 52.0 °F 29% 29.83 in 10.0 mi South 10.4 mph - N/A   Partly Cloudy
8:53 PM 84.9 °F - 51.1 °F 31% 29.84 in 10.0 mi South 8.1 mph - N/A   Scattered Clouds
9:53 PM 78.1 °F - 54.0 °F 43% 29.86 in 10.0 mi ESE 6.9 mph - N/A   Mostly Cloudy
10:53 PM 75.9 °F - 54.0 °F 46% 29.87 in 10.0 mi ESE 8.1 mph - N/A   Mostly Cloudy
11:53 PM 73.9 °F - 55.0 °F 52% 29.88 in 10.0 mi SE 8.1 mph - N/A   Mostly Cloudy